Location: Cedar Ridge
(38.0658°N, 120.2769°W)
Time: 21:03:22
(UTC+00:00)

CZ-2C R/B - Pass Details

Date: 10 September 2024
Orbit: 664 x 778 km, 98.4° (Epoch: 10 October)

Event Time Altitude Azimuth Distance (km) Brightness Sun altitude
Rises 12:39:45 0° 358° (N) 3,163 5.9 -12.3°
Reaches altitude 10° 12:42:28 10° 344° (NNW) 2,215 4.9 -11.8°
Maximum altitude 12:46:11 23° 294° (WNW) 1,500 3.6 -11.1°
Enters shadow 12:48:57 14° 251° (WSW) 1,899 3.9 -10.5°
